Change the Weather History Date:

Sunday, July 15, 2012

  Actual Average Record
Temperature  
Mean Temperature 76 °F -  
Max Temperature 87 °F 83 °F 99 °F (1988)
Min Temperature 64 °F 60 °F 49 °F (1987)
Cooling Degree Days 10    
Growing Degree Days 26 (Base 50)    
Moisture  
Dew Point 67 °F    
Average Humidity 74    
Maximum Humidity 100    
Minimum Humidity 46    
Precipitation  
Precipitation 0.00 in - - ()
Sea Level Pressure  
Sea Level Pressure 30.02 in    
Wind  
Wind Speed 2 mph (SSE)    
Max Wind Speed 8 mph    
Max Gust Speed -    
Visibility 8 miles    
Events      
Averages and records for this station are not official NWS values.
T = Trace of Precipitation, MM = Missing Value Source: NWS Daily Summary

Daily Weather History Graph

Daily Weather History Graph

Search for Another Location

Airport or City:

Trip Planner

Search our weather history database for the weather conditions in past years. The results will help you decide how hot, cold, wet, or windy it might be!

Date:

Astronomy

Jul. 15, 2012 Rise Set
Actual Time 5:42 AM CDT 8:55 PM CDT
Civil Twilight 5:06 AM CDT 9:30 PM CDT
Nautical Twilight 4:20 AM CDT 10:16 PM CDT
Astronomical Twilight 3:24 AM CDT 11:12 PM CDT
Moon 2:39 AM CDT (7/15) 6:12 PM CDT (7/15)
Length of Visible Light 16h 23m
Length of Day
15h 12m
Waning Crescent, 11% of the Moon is Illuminated
Jul 15
Waning Crescent
Jul 18
New
Jul 26
First Quarter
Aug 1
Full
Aug 9
Last Quarter

Hourly Weather History & Observations

Time (CDT) Temp. Heat Index Dew Point Humidity Pressure Visibility Wind Dir Wind Speed Gust Speed Precip Events Conditions
12:11 AM 68.0 °F - 66.2 °F 94% 30.03 in 7.0 mi Calm Calm - N/A   Clear
12:31 AM 68.0 °F - 66.2 °F 94% 30.03 in 7.0 mi Calm Calm - N/A   Clear
12:50 AM 66.2 °F - 64.4 °F 94% 30.02 in 7.0 mi Calm Calm - N/A   Clear
1:11 AM 66.2 °F - 66.2 °F 100% 30.02 in 7.0 mi Calm Calm - N/A   Clear
1:50 AM 66.2 °F - 64.4 °F 94% 30.03 in 7.0 mi Calm Calm - N/A   Clear
2:11 AM 64.4 °F - 64.4 °F 100% 30.03 in 7.0 mi Calm Calm - N/A   Clear
2:31 AM 66.2 °F - 64.4 °F 94% 30.03 in 7.0 mi Calm Calm - N/A   Clear
2:50 AM 66.2 °F - 64.4 °F 94% 30.03 in 7.0 mi Calm Calm - N/A   Clear
3:11 AM 66.2 °F - 64.4 °F 94% 30.02 in 7.0 mi Calm Calm - N/A   Clear
3:31 AM 64.4 °F - 64.4 °F 100% 30.03 in 7.0 mi Calm Calm - N/A   Clear
3:50 AM 66.2 °F - 64.4 °F 94% 30.03 in 7.0 mi Calm Calm - N/A   Clear
4:11 AM 64.4 °F - 64.4 °F 100% 30.03 in 7.0 mi Calm Calm - N/A   Clear
4:31 AM 66.2 °F - 64.4 °F 94% 30.03 in 7.0 mi Calm Calm - N/A   Clear
4:50 AM 66.2 °F - 64.4 °F 94% 30.04 in 7.0 mi Calm Calm - N/A   Clear
5:11 AM 66.2 °F - 64.4 °F 94% 30.04 in 7.0 mi Calm Calm - N/A   Clear
5:31 AM 64.4 °F - 64.4 °F 100% 30.04 in 4.0 mi Calm Calm - N/A   Clear
5:50 AM 64.4 °F - 64.4 °F 100% 30.04 in 4.0 mi Calm Calm - N/A   Clear
6:11 AM 64.4 °F - 62.6 °F 94% 30.04 in 3.0 mi Calm Calm - N/A   Clear
6:31 AM 66.2 °F - 64.4 °F 94% 30.04 in 5.0 mi Calm Calm - N/A   Clear
6:50 AM 66.2 °F - 66.2 °F 100% 30.04 in 5.0 mi Calm Calm - N/A   Clear
7:11 AM 69.8 °F - 66.2 °F 88% 30.04 in 5.0 mi Calm Calm - N/A   Clear
7:31 AM 71.6 °F - 68.0 °F 88% 30.05 in 5.0 mi Calm Calm - N/A   Clear
7:50 AM 73.4 °F - 68.0 °F 83% 30.05 in 7.0 mi Calm Calm - N/A   Clear
8:11 AM 75.2 °F - 68.0 °F 78% 30.05 in 7.0 mi Calm Calm - N/A   Clear
8:31 AM 77.0 °F - 69.8 °F 78% 30.05 in 7.0 mi Calm Calm - N/A   Clear
8:50 AM 78.8 °F - 71.6 °F 78% 30.06 in 7.0 mi Calm Calm - N/A   Clear
9:11 AM 80.6 °F 83.2 °F 68.0 °F 65% 30.07 in 10.0 mi Calm Calm - N/A   Clear
9:31 AM 80.6 °F 83.9 °F 69.8 °F 70% 30.06 in 7.0 mi Calm Calm - N/A   Clear
9:50 AM 82.4 °F 86.3 °F 69.8 °F 66% 30.07 in 10.0 mi Calm Calm - N/A   Clear
10:11 AM 84.2 °F 88.4 °F 69.8 °F 62% 30.06 in 7.0 mi Calm Calm - N/A   Clear
10:31 AM 84.2 °F 88.4 °F 69.8 °F 62% 30.06 in 10.0 mi Calm Calm - N/A   Clear
10:50 AM 84.2 °F 87.3 °F 68.0 °F 58% 30.05 in 10.0 mi SE 3.5 mph - N/A   Clear
11:11 AM 84.2 °F 88.4 °F 69.8 °F 62% 30.06 in 7.0 mi East 3.5 mph - N/A   Clear
11:30 AM 86.0 °F 89.4 °F 68.0 °F 55% 30.05 in 7.0 mi SSE 3.5 mph - N/A   Clear
11:50 AM 86.0 °F 88.2 °F 66.2 °F 51% 30.06 in 10.0 mi SSE 3.5 mph - N/A   Clear
12:11 PM 87.8 °F 89.4 °F 64.4 °F 46% 30.05 in 10.0 mi South 3.5 mph - N/A   Clear
12:30 PM 87.8 °F 90.4 °F 66.2 °F 49% 30.05 in 7.0 mi ESE 3.5 mph - N/A   Clear
12:51 PM 87.8 °F 89.4 °F 64.4 °F 46% 30.05 in 10.0 mi South 4.6 mph - N/A   Clear
1:10 PM 87.8 °F 89.4 °F 64.4 °F 46% 30.04 in 7.0 mi Calm Calm - N/A   Clear
1:31 PM 86.0 °F 88.2 °F 66.2 °F 51% 30.04 in 7.0 mi South 6.9 mph - N/A   Scattered Clouds
1:51 PM 86.0 °F 88.2 °F 66.2 °F 51% 30.03 in 7.0 mi South 6.9 mph - N/A   Scattered Clouds
2:10 PM 87.8 °F 90.4 °F 66.2 °F 49% 30.03 in 10.0 mi SE 6.9 mph - N/A   Clear
2:31 PM 86.0 °F 88.2 °F 66.2 °F 51% 30.02 in 10.0 mi SE 6.9 mph - N/A   Clear
2:51 PM 86.0 °F 88.2 °F 66.2 °F 51% 30.02 in 10.0 mi South 5.8 mph - N/A   Clear
3:10 PM 86.0 °F 88.2 °F 66.2 °F 51% 30.01 in 10.0 mi SSE 6.9 mph - N/A   Clear
3:30 PM 86.0 °F 88.2 °F 66.2 °F 51% 30.01 in 10.0 mi SSE 6.9 mph - N/A   Clear
3:51 PM 86.0 °F 88.2 °F 66.2 °F 51% 30.01 in 7.0 mi SE 8.1 mph - N/A   Clear
4:10 PM 86.0 °F 88.2 °F 66.2 °F 51% 30.00 in 10.0 mi SSE 8.1 mph - N/A   Clear
4:30 PM 86.0 °F 88.2 °F 66.2 °F 51% 30.00 in 10.0 mi SE 6.9 mph - N/A   Clear
4:51 PM 86.0 °F 89.4 °F 68.0 °F 55% 29.99 in 10.0 mi SE 8.1 mph - N/A   Clear
5:10 PM 87.8 °F 91.4 °F 68.0 °F 52% 29.99 in 7.0 mi SSE 6.9 mph - N/A   Clear
5:30 PM 84.2 °F 87.3 °F 68.0 °F 58% 29.98 in 7.0 mi South 5.8 mph - N/A   Clear
5:51 PM 86.0 °F 89.4 °F 68.0 °F 55% 29.98 in 10.0 mi SE 6.9 mph - N/A   Clear
6:10 PM 84.2 °F 87.3 °F 68.0 °F 58% 29.98 in 7.0 mi South 5.8 mph - N/A   Clear
6:30 PM 84.2 °F 87.3 °F 68.0 °F 58% 29.97 in 10.0 mi SSE 4.6 mph - N/A   Clear
6:51 PM 84.2 °F 88.4 °F 69.8 °F 62% 29.97 in 10.0 mi SSE 3.5 mph - N/A   Clear
7:10 PM 82.4 °F 85.4 °F 68.0 °F 62% 29.97 in 7.0 mi SSE 3.5 mph - N/A   Clear
7:30 PM 82.4 °F 86.3 °F 69.8 °F 66% 29.97 in 7.0 mi Calm Calm - N/A   Clear
8:10 PM 82.4 °F 86.3 °F 69.8 °F 66% 29.96 in 7.0 mi SE 4.6 mph - N/A   Clear
8:30 PM 80.6 °F 83.9 °F 69.8 °F 70% 29.96 in 7.0 mi ESE 3.5 mph - N/A   Clear
8:51 PM 78.8 °F - 69.8 °F 74% 29.96 in 5.0 mi ESE 3.5 mph - N/A   Haze
9:10 PM 77.0 °F - 69.8 °F 78% 29.96 in 7.0 mi Calm Calm - N/A   Clear
9:31 PM 75.2 °F - 69.8 °F 83% 29.96 in 5.0 mi ESE 4.6 mph - N/A   Haze
9:51 PM 73.4 °F - 69.8 °F 88% 29.96 in 10.0 mi SE 4.6 mph - N/A   Clear
10:10 PM 73.4 °F - 69.8 °F 88% 29.96 in 10.0 mi SE 3.5 mph - N/A   Clear
10:31 PM 73.4 °F - 69.8 °F 88% 29.96 in 7.0 mi Calm Calm - N/A   Clear
10:51 PM 73.4 °F - 68.0 °F 83% 29.96 in 7.0 mi Calm Calm - N/A   Clear
11:10 PM 73.4 °F - 69.8 °F 88% 29.96 in 7.0 mi SSE 3.5 mph - N/A   Clear
11:51 PM 73.4 °F - 69.8 °F 88% 29.95 in 10.0 mi SSE 3.5 mph - N/A   Clear